Dewpoint
47 47 47 47 47 47 47 47 48 48 48 48 48 48 48 48 48 48 48 48 48 48 48 48 48 48 48 48 48 48 48 48 48 48 48 48 48 48 48 47 47 46 45 43 40 37 35 30 22 15 15 16 17 17 18 20 20 19 18 21 24 26 29 42 48 51 52 52 52 53 53 53 53 53 53 53 53 53 53 53 53 53 53 53 53 53 53 53 53 53 53 54 54 54 55 55 55 55 55 55 56 56 56
47 47 47 47 47 47 47 47 47 47 48 48 48 48 48 48 48 48 48 48 48 48 48 48 48 48 48 48 48 48 48 48 48 48 48 48 48 48 47 47 46 45 44 43 40 36 34 27 20 15 14 16 17 18 18 20 19 18 18 20 23 26 31 44 49 50 51 51 52 52 52 52 52 52 52 52 52 52 52 52 53 53 53 53 53 53 53 53 53 53 53 53 54 54 54 54 54 55 55 55 55 55 55
46 46 46 46 46 46 46 47 47 47 47 47 47 48 48 48 48 48 48 48 48 48 48 48 48 48 48 48 48 48 48 48 48 48 48 48 48 47 47 46 45 44 44 42 39 36 33 29 21 15 15 16 17 18 19 19 18 17 17 20 23 28 36 45 49 50 51 51 51 51 51 51 51 51 52 51 51 52 52 52 52 52 52 53 53 53 53 53 53 53 53 53 53 53 53 54 54 54 54 54 55 55 55
46 46 46 46 46 46 46 46 46 47 47 47 47 47 48 48 48 48 48 48 48 48 48 48 48 48 47 47 48 48 48 47 47 47 47 47 47 47 46 45 44 44 43 41 39 36 29 27 22 18 15 16 17 18 19 19 19 18 18 20 23 30 42 47 49 50 50 51 51 51 51 51 51 51 51 51 51 51 51 51 52 52 52 52 52 52 53 53 53 53 53 53 53 53 53 53 53 53 54 54 54 54 54
46 46 46 46 46 46 46 46 46 46 47 47 47 47 47 47 47 48 48 48 48 48 48 48 47 47 47 47 47 47 47 47 47 47 46 46 46 46 45 45 44 43 42 41 39 35 26 25 21 18 16 17 17 18 19 20 21 20 19 20 24 33 45 48 49 49 50 51 51 51 51 51 51 50 50 50 50 50 50 51 51 51 51 51 51 52 52 52 52 53 53 52 52 53 53 53 53 53 53 53 54 54 54
45 45 45 45 46 46 46 46 46 46 46 47 47 47 47 47 47 47 48 48 48 47 47 47 47 47 46 46 46 46 46 46 46 46 46 46 45 45 45 44 43 42 41 40 39 36 29 21 18 17 17 17 18 18 18 20 19 19 18 20 27 37 45 48 49 49 50 50 51 51 51 51 50 50 50 50 50 50 50 50 50 50 50 51 51 51 51 51 52 52 52 52 52 52 52 53 53 53 53 53 53 53 53
45 45 45 45 45 45 45 45 45 46 46 46 46 46 47 47 47 47 47 47 47 47 47 46 46 46 46 46 45 45 45 45 45 45 45 45 45 44 44 43 42 41 40 39 38 35 29 20 17 18 17 18 19 19 19 19 19 18 17 21 31 42 45 47 48 49 49 50 50 50 51 51 50 50 50 50 50 50 50 50 50 50 50 50 50 50 50 51 51 51 51 52 52 52 52 52 52 52 53 53 53 53 53
45 45 45 45 45 45 45 45 45 45 46 46 46 46 46 47 47 47 47 47 47 46 46 46 45 45 45 45 45 45 44 44 44 44 44 44 44 44 43 42 41 40 39 39 37 35 32 23 20 18 18 18 19 20 19 18 18 17 16 22 32 42 45 47 48 48 49 49 50 50 50 50 50 50 49 49 49 49 49 49 49 49 49 49 49 49 50 50 50 50 51 51 51 51 51 51 52 52 52 52 53 53 53
44 44 44 44 44 44 44 44 45 45 45 46 46 46 46 46 46 46 46 46 46 46 45 45 45 44 44 44 44 44 44 44 44 44 44 44 43 43 42 41 40 39 38 37 36 35 33 25 21 19 17 18 21 22 21 19 18 18 16 25 34 41 45 46 47 48 49 49 49 49 50 50 49 49 49 49 49 49 49 49 49 49 49 49 49 49 49 49 49 50 50 50 50 51 51 51 51 51 52 52 52 52 53
43 43 44 44 44 44 44 44 44 45 45 45 45 45 45 46 46 46 46 45 45 45 45 44 44 44 44 43 43 43 43 43 43 43 43 43 42 42 41 40 39 38 37 36 35 34 32 24 20 19 17 18 20 22 24 21 20 19 17 29 37 43 45 46 47 48 48 48 49 49 49 49 49 48 48 49 49 49 49 48 48 48 48 48 48 48 49 49 49 49 49 50 50 50 50 51 51 51 51 52 52 52 52
43 42 43 43 44 44 44 44 44 44 44 44 45 45 45 45 45 45 45 45 45 44 44 44 44 43 43 42 42 42 42 42 42 42 42 42 41 41 40 39 38 37 36 35 34 32 30 23 20 18 17 17 19 21 21 21 20 20 20 32 39 44 44 45 46 47 48 48 48 48 48 48 48 48 48 48 48 48 48 48 48 48 48 48 48 48 48 48 48 49 49 49 49 50 50 50 51 51 51 51 52 52 52
42 42 42 42 43 43 43 43 43 43 44 44 44 44 44 44 44 44 45 44 44 44 44 43 43 42 41 41 40 40 40 40 40 41 41 41 40 40 39 39 37 36 35 33 31 30 27 21 19 17 17 17 18 18 19 19 19 20 23 35 41 43 44 45 45 46 47 47 47 48 48 47 47 47 47 48 48 48 48 48 48 48 48 48 48 48 48 48 48 48 48 49 49 49 49 50 50 50 51 51 51 52 52
41 41 41 42 42 42 42 42 42 42 43 43 43 44 44 44 44 44 44 44 44 43 43 42 42 41 40 40 39 39 39 39 39 39 40 39 39 39 39 38 36 35 33 31 29 26 22 18 17 17 18 18 17 17 19 18 17 20 28 38 42 43 43 44 45 45 46 46 46 47 47 46 46 47 47 47 47 47 48 48 48 48 48 48 48 48 48 48 48 48 48 48 48 49 49 49 49 50 50 51 51 51 52
41 40 40 40 40 41 41 41 41 41 42 42 42 43 43 43 43 43 43 43 42 42 42 42 41 40 39 39 38 37 37 37 37 38 39 39 38 38 37 36 35 33 31 28 24 19 17 16 17 17 18 17 17 17 21 19 18 21 33 39 41 42 43 43 44 45 45 45 45 45 45 45 45 46 46 46 47 47 47 47 47 47 47 47 47 47 48 48 48 48 48 48 48 48 48 49 49 49 50 50 50 51 51
40 39 39 39 39 39 40 40 40 40 40 41 41 42 42 42 42 42 42 41 41 41 41 40 40 39 38 37 36 35 34 35 35 36 36 37 37 37 36 35 34 31 29 23 18 15 15 16 17 17 17 17 16 17 20 18 19 25 36 39 40 41 42 43 44 44 44 44 44 44 44 44 45 45 45 45 46 46 46 46 46 46 47 47 47 47 47 47 48 48 48 48 48 48 48 48 49 49 49 49 50 50 50
38 38 37 37 37 38 39 39 39 39 39 39 40 40 40 41 40 40 41 40 40 40 39 39 39 38 37 35 34 32 30 31 32 33 34 35 35 35 35 34 32 29 25 18 16 15 15 15 16 17 17 17 16 16 18 18 21 28 38 39 40 41 41 42 43 44 44 44 44 44 44 44 44 44 44 45 45 45 45 46 46 46 46 46 46 47 47 47 47 47 47 48 48 48 48 48 48 48 49 49 49 49 50
36 36 36 35 36 37 38 38 38 38 38 38 39 39 39 39 39 39 39 39 39 39 38 38 37 37 36 34 32 29 23 24 26 27 30 32 33 33 33 31 29 26 20 17 15 15 15 15 16 17 17 16 16 16 18 18 23 31 37 39 39 40 41 42 43 43 43 43 43 43 43 43 43 44 44 44 44 44 45 45 45 45 46 46 46 46 46 47 47 47 47 47 48 48 48 48 48 48 48 48 49 49 49
34 34 34 34 34 35 36 36 36 36 36 36 37 37 38 38 38 38 38 38 38 37 37 36 36 35 35 32 29 24 17 16 17 19 24 27 30 30 30 28 25 21 17 15 15 15 15 15 15 16 16 15 15 16 19 19 25 33 37 39 39 40 41 42 42 43 43 43 43 43 43 43 43 43 43 43 44 44 44 44 44 45 45 45 45 46 46 46 46 47 47 47 47 47 48 48 48 48 48 48 48 49 49
32 33 33 33 33 33 34 35 35 35 34 34 34 35 35 36 36 36 36 36 36 36 35 35 34 33 32 30 24 18 15 14 14 15 16 21 24 26 26 22 20 18 16 15 16 16 16 16 15 15 15 15 15 17 19 20 26 33 36 38 39 39 40 41 42 42 42 42 42 43 43 43 43 43 43 43 43 44 44 44 44 44 44 45 45 45 45 46 46 46 46 46 47 47 47 47 48 48 48 48 48 48 48
27 28 30 30 30 30 31 32 33 33 33 31 31 32 34 34 34 34 34 34 34 34 33 32 31 29 29 24 19 15 13 14 14 14 14 16 18 20 19 17 17 17 16 16 17 17 17 16 15 15 15 14 16 17 18 21 27 34 36 37 38 39 40 40 41 42 42 42 42 42 42 42 42 42 43 43 43 43 44 44 44 44 44 44 45 45 45 45 45 46 46 46 46 46 47 47 47 47 47 47 48 48 48
18 20 21 23 24 25 25 26 27 29 30 30 26 24 24 26 29 30 30 29 30 30 31 29 25 21 20 18 16 14 14 14 14 14 15 15 16 16 16 16 16 16 17 17 18 18 18 17 16 15 15 15 15 16 17 22 28 33 35 36 37 38 39 39 40 41 41 41 41 42 42 42 42 42 42 43 43 43 43 43 44 44 44 44 44 44 45 45 45 45 45 45 45 46 46 46 46 46 47 47 47 47 48
13 14 14 14 15 16 16 17 20 23 26 27 23 17 15 17 20 22 25 21 21 23 24 22 18 15 15 15 14 14 14 14 14 15 15 15 15 16 16 17 17 17 18 18 18 17 17 17 16 15 16 15 15 16 17 25 30 32 34 35 36 37 38 39 39 40 41 41 41 41 41 42 42 42 42 42 42 43 43 43 43 44 44 44 44 44 44 44 44 44 44 45 45 45 45 46 46 46 46 47 47 47 47
13 13 12 12 13 13 13 15 17 19 21 24 21 16 14 14 15 16 18 16 15 15 16 16 14 14 14 14 13 13 13 14 15 15 14 14 15 16 17 17 18 18 18 18 17 17 17 16 15 16 16 16 16 16 17 26 30 32 33 34 35 36 37 38 39 40 40 40 41 41 41 41 41 41 42 42 42 42 42 42 43 43 43 44 44 44 44 44 44 44 44 44 44 44 45 45 46 46 46 47 47 47 47
14 13 14 14 14 15 15 16 17 17 18 19 18 16 14 15 14 13 14 14 13 13 13 13 13 13 14 13 13 13 13 14 15 15 14 14 15 16 17 18 18 18 18 18 17 17 16 16 15 16 16 17 16 16 17 26 29 31 32 33 34 35 36 37 39 39 39 40 40 40 41 41 41 41 41 41 41 41 41 42 42 42 43 43 43 44 44 44 44 44 44 44 44 44 45 45 45 46 46 46 47 47 47
15 15 15 15 15 16 17 17 17 17 17 18 17 16 14 14 14 14 14 14 14 13 13 13 13 13 13 13 13 13 14 14 14 15 14 14 15 15 17 17 18 18 18 18 18 17 16 16 16 16 16 16 16 16 18 25 29 30 31 32 33 34 35 36 38 39 39 39 40 40 40 40 41 41 41 41 41 41 41 41 42 42 42 42 43 43 43 43 43 44 44 44 44 44 44 45 45 46 46 46 47 47 47
16 15 15 15 16 16 17 17 17 17 17 17 17 15 14 14 14 14 14 14 14 14 14 13 13 13 13 13 13 14 14 15 15 15 16 16 16 16 16 17 17 18 18 18 18 17 16 16 16 16 17 17 16 16 18 25 28 29 30 31 32 33 35 35 36 38 39 39 39 40 40 40 40 40 40 40 41 41 41 41 41 41 42 42 42 42 42 43 43 43 44 44 44 44 44 45 45 45 45 46 47 47 47
15 14 14 15 16 16 15 16 16 17 17 17 16 15 15 14 14 14 14 14 14 14 14 14 13 13 14 14 14 14 14 16 17 17 17 18 18 18 17 17 17 17 17 17 17 17 17 17 17 17 17 17 16 16 17 23 26 28 29 30 31 33 34 35 35 36 38 39 39 39 39 40 40 40 40 40 40 40 41 41 41 41 41 41 41 41 42 42 42 43 43 44 44 44 44 44 45 45 45 46 46 47 47
15 14 14 15 16 15 15 15 16 16 16 17 16 16 15 14 14 14 14 14 14 14 14 14 14 14 15 16 15 15 15 16 17 17 17 17 18 18 17 17 16 16 16 17 17 17 17 17 16 16 15 15 15 15 15 20 24 27 29 30 31 32 33 34 35 36 37 38 39 39 39 39 39 39 39 39 40 40 40 41 41 41 40 41 41 41 41 42 42 42 43 43 44 44 44 44 44 45 45 45 46 46 46
14 14 14 15 15 14 15 15 16 16 16 16 16 15 15 15 14 14 14 14 14 14 14 14 15 16 17 17 16 16 16 17 17 17 17 17 17 17 17 16 16 16 16 16 16 16 16 16 15 14 13 13 14 15 15 18 22 26 28 29 30 31 33 34 35 35 36 37 38 38 38 38 39 39 39 39 39 40 40 40 40 40 40 40 40 41 41 41 42 42 43 43 43 44 44 44 44 44 44 45 45 45 45
14 14 15 14 14 14 15 16 16 16 16 16 15 15 15 15 15 14 14 14 14 15 14 15 15 17 18 17 16 16 16 17 17 17 17 17 17 17 17 16 15 15 15 15 15 16 16 16 15 15 14 14 14 14 15 17 21 26 28 29 30 31 32 33 34 35 35 36 37 37 38 38 38 38 39 39 39 39 39 39 39 39 39 40 40 40 41 41 41 42 42 43 43 43 44 44 44 44 44 44 44 44 44
13 14 14 14 14 14 15 15 15 16 16 16 15 15 14 15 15 14 14 14 14 14 14 14 15 16 17 17 17 16 17 17 17 17 18 17 17 17 16 16 15 15 14 15 16 16 17 16 16 15 15 15 14 14 13 15 19 24 27 28 29 30 31 32 33 34 35 35 36 37 37 37 38 38 38 38 39 39 39 39 39 39 39 39 40 40 40 41 41 41 42 42 42 43 43 43 43 43 44 44 44 44 44
14 14 14 14 14 14 15 16 15 15 16 16 15 15 15 15 15 15 15 15 14 14 14 14 15 15 16 16 16 16 17 17 17 17 18 18 17 17 17 16 15 14 15 15 16 16 16 17 17 16 15 15 14 14 14 15 17 21 25 27 28 29 30 31 32 33 34 35 35 36 37 37 37 38 38 38 38 38 38 39 39 39 39 39 39 40 40 40 41 41 41 42 42 42 42 42 43 43 43 43 44 44 44
14 14 13 13 13 14 17 16 15 15 16 16 16 15 15 16 16 16 15 15 15 15 15 14 15 15 15 15 15 16 16 17 16 16 17 17 17 17 17 16 15 15 16 15 15 15 17 16 16 15 16 15 15 14 14 15 16 18 21 26 27 29 29 30 31 32 32 33 34 35 36 36 37 37 37 38 38 38 38 38 39 39 39 39 39 40 40 40 40 41 41 41 41 41 41 42 42 43 43 43 44 44 44
13 13 13 13 13 14 15 14 14 15 16 16 16 16 16 16 16 15 14 14 15 15 15 14 14 14 14 14 15 16 17 17 17 16 16 17 17 17 16 16 16 15 16 15 15 15 16 15 15 15 15 15 15 15 15 16 16 17 18 22 26 28 29 29 30 30 31 31 32 33 35 35 36 36 37 37 37 37 38 38 38 39 39 39 39 39 40 40 40 40 40 40 40 41 41 41 42 42 43 44 44 44 44
13 13 12 12 13 14 14 13 14 15 16 16 16 16 16 16 15 15 14 14 14 14 14 14 14 14 14 15 15 16 17 17 17 16 15 16 16 16 16 15 15 15 15 15 14 15 15 15 14 14 14 15 16 16 16 17 17 17 17 22 25 27 28 28 28 29 29 30 30 31 33 34 35 35 36 36 37 37 37 38 38 38 39 39 39 39 39 39 40 40 40 40 40 40 40 41 42 42 43 44 44 44 44
13 13 12 12 13 14 16 15 15 15 16 16 16 16 16 16 15 15 15 16 15 14 15 15 15 16 16 16 16 17 17 17 17 16 16 16 16 16 16 15 15 15 15 15 15 15 15 14 14 14 14 14 15 16 17 17 18 18 18 20 22 24 26 26 26 27 27 28 29 30 31 32 33 34 35 35 36 36 37 37 38 38 39 39 39 39 39 39 39 39 39 39 39 40 40 41 41 42 43 43 44 44 44
13 13 13 13 13 14 15 15 15 16 15 15 15 15 15 15 15 15 15 16 16 15 16 16 17 17 18 17 17 17 16 16 16 16 16 16 16 16 16 16 16 16 16 15 15 16 15 14 14 14 14 14 14 15 16 17 18 18 18 18 19 20 21 21 23 24 26 26 27 28 30 30 31 33 34 35 35 36 36 37 37 38 38 39 39 39 39 39 39 39 39 39 39 40 40 41 41 42 42 43 43 44 44
12 13 13 13 13 13 14 15 15 16 15 15 15 15 15 15 15 15 15 15 16 16 16 15 16 17 18 17 16 16 17 16 16 16 16 16 16 16 15 16 16 16 16 16 16 16 14 14 14 14 14 14 14 15 16 16 17 17 17 17 17 17 17 18 20 21 23 25 26 27 28 29 30 31 32 34 35 35 36 37 37 37 38 38 39 39 39 39 39 39 39 39 39 40 40 40 41 41 42 42 43 43 44
12 13 13 13 13 13 13 14 15 15 15 15 15 15 15 15 15 15 15 15 15 16 17 16 16 16 16 16 15 16 17 17 17 16 16 16 16 15 15 16 16 16 15 16 16 16 14 14 14 14 14 15 15 15 15 15 15 15 16 17 17 17 17 18 20 20 19 21 23 25 26 27 29 30 31 33 34 35 35 36 36 36 37 37 38 38 39 39 39 39 39 39 39 40 40 40 40 41 41 42 42 43 43
13 13 13 13 13 13 14 14 15 15 14 14 15 15 15 15 15 15 15 14 15 16 16 16 15 15 14 15 15 16 16 17 16 16 16 15 15 15 15 16 16 16 16 16 16 15 15 14 14 14 14 15 15 15 15 14 14 15 16 16 17 17 17 18 19 18 17 16 18 21 25 26 28 29 30 31 32 34 35 35 35 35 36 37 37 38 38 38 39 39 39 39 39 39 40 40 40 40 41 41 42 42 43
14 14 14 13 13 14 14 14 15 15 14 14 14 15 15 14 14 14 14 14 14 16 16 17 16 14 14 15 15 15 15 16 16 16 15 15 15 15 15 16 15 15 15 17 16 15 15 15 14 14 14 15 15 15 15 15 15 16 17 17 17 17 18 19 19 18 16 15 16 19 23 26 27 28 29 30 31 32 33 34 34 34 35 35 36 37 37 38 38 39 39 39 39 39 39 40 40 40 41 41 42 42 42
14 14 14 14 14 14 15 15 15 15 14 14 14 15 15 14 14 14 14 14 15 16 16 17 17 16 14 15 15 15 15 16 16 16 16 15 15 15 16 15 15 14 15 16 16 15 15 15 15 15 15 15 15 15 15 16 17 17 18 18 18 18 19 20 19 17 16 16 17 18 21 24 26 27 28 29 30 31 31 32 32 32 33 34 35 36 37 37 38 38 39 39 39 39 39 39 40 40 41 41 41 42 42
14 14 14 14 14 14 15 15 15 15 15 15 14 14 14 14 14 15 15 15 15 15 15 17 17 17 16 15 15 15 15 15 15 16 16 15 16 16 16 16 15 15 15 15 15 14 14 15 15 16 17 15 15 16 16 17 17 17 18 17 17 18 19 19 19 18 19 18 18 19 20 22 25 26 27 28 29 29 30 30 30 31 32 33 34 35 36 37 37 38 38 39 39 39 39 39 40 40 40 41 42 42 42
15 14 14 13 13 14 14 15 16 16 15 15 14 14 14 14 14 15 16 16 15 14 14 16 17 17 17 16 15 15 14 14 14 15 16 16 16 16 16 16 15 15 14 14 14 14 14 14 16 17 17 15 15 15 15 16 17 17 18 17 17 17 20 20 20 20 21 21 20 20 20 21 22 23 25 26 27 27 28 28 29 30 31 32 34 35 35 36 36 37 38 38 39 39 39 39 39 40 40 41 42 42 42
15 14 13 13 13 14 14 16 16 16 15 15 15 14 14 14 14 15 15 15 15 14 14 15 17 18 17 16 15 14 14 14 14 15 15 17 16 15 15 15 14 14 14 14 14 14 14 15 16 16 15 14 13 14 14 16 17 17 19 18 18 18 20 20 20 21 20 21 20 19 20 20 20 20 21 22 23 23 25 26 28 29 30 31 32 34 35 35 35 36 37 38 38 39 39 39 39 40 41 41 42 42 43
15 14 12 13 13 13 13 15 16 16 15 15 15 14 14 14 14 15 15 15 15 15 14 15 16 17 17 17 17 16 15 15 16 16 17 16 16 15 15 14 14 14 14 14 14 14 14 16 15 13 13 12 12 13 13 16 17 17 18 18 18 18 20 20 20 21 20 20 20 19 20 19 19 19 19 18 17 18 21 25 27 28 29 30 31 32 33 34 34 35 36 37 38 38 39 39 39 40 41 42 42 43 43
15 14 12 12 13 13 13 14 15 16 15 14 14 14 13 13 13 13 14 14 14 14 15 16 15 16 17 19 19 18 17 17 17 16 16 15 14 15 17 15 14 13 13 13 13 13 14 15 14 13 13 13 13 12 13 15 16 16 16 17 18 19 20 21 20 20 20 18 19 20 20 19 18 18 17 17 16 16 19 22 25 26 28 29 30 31 32 32 33 34 35 36 37 38 38 39 39 39 41 42 43 43 43
16 15 13 13 13 13 13 14 14 15 14 14 13 13 12 13 13 13 13 13 13 13 15 17 17 17 17 18 18 17 16 16 15 15 14 13 13 13 15 14 13 13 12 12 13 14 16 14 13 13 13 13 12 12 13 14 15 15 15 16 17 18 19 19 19 18 19 17 17 18 20 19 18 18 17 16 16 16 17 17 20 23 26 27 28 30 30 31 31 32 34 35 36 37 38 38 39 39 41 42 43 43 43
17 16 13 13 13 13 13 13 15 15 14 14 14 14 13 13 13 14 15 14 14 14 16 18 19 19 18 17 16 15 15 15 15 15 14 13 12 11 11 11 12 12 12 12 13 15 17 14 13 12 12 12 12 12 13 14 15 15 14 15 15 16 18 18 18 18 18 17 17 19 19 19 18 18 17 17 16 16 16 15 16 17 22 26 27 28 29 29 30 31 32 34 35 36 37 38 39 39 40 41 42 43 43
17 16 14 13 13 13 13 13 14 15 14 14 14 14 14 14 14 15 17 16 16 16 17 17 19 19 18 15 14 13 14 15 15 15 13 12 10 9 9 10 10 11 11 12 13 13 14 12 12 12 12 12 12 13 14 14 14 14 13 14 14 14 16 16 17 17 18 18 18 18 18 18 18 18 17 17 16 16 16 15 14 16 20 21 23 25 26 27 29 30 31 33 34 35 36 37 38 39 39 41 42 42 42
16 16 15 14 13 13 13 13 14 14 14 16 16 16 16 17 17 18 17 17 17 17 17 17 17 17 17 15 13 13 14 15 16 14 12 11 11 11 10 10 10 10 8 8 10 12 12 12 12 12 13 13 13 13 13 12 12 12 12 13 14 14 15 14 14 16 17 18 17 17 16 17 18 18 17 17 17 16 17 16 15 15 17 16 17 18 19 22 26 29 30 31 32 33 34 35 36 38 39 40 41 42 42
15 16 15 14 13 13 13 13 13 14 17 17 16 16 16 16 16 17 18 18 18 18 18 16 14 14 16 16 15 15 17 15 15 14 12 12 12 12 12 12 10 7 5 5 6 8 10 12 13 15 16 15 12 11 10 10 11 12 13 13 13 14 14 13 12 13 15 16 17 17 17 18 19 19 18 18 17 17 16 16 16 16 16 16 17 19 21 23 26 28 30 31 31 32 32 34 35 36 37 39 40 41 42
15 15 15 14 14 13 13 13 13 13 16 15 15 15 15 15 15 16 17 17 17 18 17 16 15 13 13 15 16 17 19 17 16 15 14 13 13 12 12 11 8 6 6 5 4 4 5 6 7 8 8 9 8 8 9 9 10 11 13 12 12 13 12 12 12 13 13 14 16 17 17 18 19 19 18 17 15 14 15 16 16 15 15 17 18 19 19 22 26 28 30 30 30 31 31 32 33 35 36 38 39 41 41
14 14 15 15 14 14 13 13 13 13 15 15 15 14 14 14 14 14 15 15 15 16 16 17 17 15 12 13 13 14 15 17 17 17 16 15 13 12 11 9 8 8 8 7 4 1 -1 1 3 5 7 8 8 9 9 10 10 11 12 12 12 11 12 12 12 12 12 13 14 15 15 17 18 19 18 16 15 14 16 16 16 16 16 16 16 16 17 20 25 28 28 28 29 29 30 30 32 33 35 37 39 40 41
14 14 14 14 14 14 13 13 13 12 13 14 14 14 13 13 13 13 13 13 14 14 13 15 16 15 13 13 12 13 12 17 18 17 17 16 14 12 12 11 11 10 8 6 3 1 0 3 5 7 7 8 8 8 8 8 9 10 12 12 12 12 12 11 11 11 11 10 11 12 13 14 15 16 17 16 15 15 16 14 14 14 14 15 16 18 20 24 25 25 24 24 26 27 28 30 31 33 35 37 39 40 41
14 14 15 14 14 13 13 13 13 12 12 13 13 13 13 13 13 13 13 13 13 13 14 14 15 15 15 13 13 13 13 14 16 17 16 16 16 15 14 12 10 8 5 3 3 3 4 7 8 7 7 7 7 6 7 8 8 10 12 12 11 11 11 11 10 10 9 10 10 11 12 12 14 15 15 15 15 14 13 13 13 14 15 16 17 18 19 21 20 20 20 20 22 25 27 29 31 32 35 36 38 39 41
14 14 14 15 14 13 13 12 12 12 12 12 12 12 12 12 12 13 13 13 13 13 14 14 14 15 16 15 14 13 13 13 15 17 17 17 17 18 17 15 13 11 8 7 6 7 8 9 8 6 5 7 8 8 8 8 9 10 11 10 10 10 11 10 10 9 9 10 10 10 11 12 12 12 13 14 14 13 14 15 15 15 15 15 15 15 15 17 18 18 18 19 19 21 26 28 30 32 34 36 38 39 40
13 13 13 14 14 13 12 12 12 12 12 13 13 12 12 12 12 12 12 13 13 13 15 14 14 14 15 15 15 14 13 13 13 14 16 17 17 18 19 17 16 15 14 13 12 11 11 10 9 8 6 6 7 8 9 9 9 9 9 9 9 9 9 9 9 10 10 9 10 10 10 12 12 12 13 13 13 14 15 15 15 15 13 13 13 13 14 16 18 20 19 21 21 23 27 28 29 31 33 35 37 39 40
13 13 13 13 12 12 12 12 12 12 12 14 14 13 12 12 12 12 12 14 14 15 15 14 14 14 16 16 15 14 14 14 13 14 14 15 15 16 18 17 17 17 17 16 15 14 14 12 11 9 8 7 6 7 8 8 8 8 8 8 8 9 9 10 10 11 11 10 10 10 10 11 12 12 11 12 12 12 13 14 13 13 12 13 13 14 15 19 21 21 23 25 25 26 26 26 28 30 32 35 37 39 41
13 13 12 12 12 12 12 12 12 12 12 15 15 14 12 12 12 12 13 15 17 17 17 15 14 15 16 17 16 15 14 14 14 14 14 13 13 14 15 15 15 15 16 16 16 16 16 15 13 12 11 8 7 6 6 7 8 9 9 8 8 8 9 10 10 10 11 10 10 11 10 10 10 11 11 11 11 11 12 12 12 12 13 13 13 14 15 16 17 18 20 22 24 24 24 26 27 30 32 35 37 39 41
14 13 12 12 12 11 11 12 12 12 12 16 16 15 13 13 13 13 13 14 16 17 18 17 15 15 15 16 16 16 15 15 15 14 14 13 13 13 15 15 15 15 16 16 16 15 15 15 15 15 13 12 9 8 6 7 8 8 8 8 8 8 8 9 9 10 9 9 9 10 10 10 10 10 10 11 12 12 12 12 13 13 13 14 14 14 16 15 15 15 15 17 20 23 24 25 27 29 32 34 36 39 40